Wind_Speed
16 14 16 13 2 11 6 4 5 9 3 7 11 10 11 11 14 14 14 13 12 11 12 11 11 10 11 13 15 15 16 17 19 17 20 21 22 20 18 16 16 21 21 20
9 15 9 2 4 7 7 2 10 7 5 11 11 13 11 12 12 14 13 12 11 10 8 8 8 6 8 10 11 13 14 13 16 18 17 19 20 21 21 21 23 18 17 23
13 13 5 6 6 7 4 4 7 9 7 13 12 11 2 14 12 12 10 9 9 8 7 6 4 6 8 7 8 10 12 14 13 16 17 20 20 23 23 24 23 26 28 24
2 9 9 7 5 8 9 3 1 4 11 3 16 5 26 18 18 13 13 7 7 5 3 3 4 4 4 5 5 7 10 12 16 16 18 19 21 23 24 26 27 30 26 22
10 10 9 8 10 6 7 3 6 8 11 15 11 8 9 12 7 10 9 7 6 2 2 6 5 4 7 7 8 5 8 12 13 17 19 22 23 24 26 28 29 27 28 28
9 1 5 12 2 4 2 5 8 9 13 12 19 7 15 14 17 11 4 6 4 3 7 1 3 8 14 16 16 16 12 15 11 18 20 22 24 27 28 30 30 30 29 32
7 13 7 5 10 7 10 8 10 9 7 2 14 7 12 13 11 10 12 7 7 2 9 7 11 16 16 17 16 18 19 19 20 23 23 25 27 27 27 28 27 28 28 29
10 8 12 5 9 7 3 9 7 9 10 7 9 9 4 11 11 11 11 11 8 9 5 13 17 12 17 17 21 20 19 19 24 25 27 27 26 23 20 20 22 24 26 28
5 8 6 1 4 8 3 4 8 7 16 9 10 10 13 9 9 7 9 11 7 9 10 10 13 14 15 23 26 21 24 31 26 28 26 27 25 22 22 21 20 20 27 29
4 3 5 9 6 8 7 8 6 5 6 6 6 19 8 9 9 8 8 7 10 8 8 12 14 20 23 25 22 28 28 23 30 31 26 25 25 22 22 21 23 23 25 29
3 5 9 7 7 9 3 4 1 4 5 7 9 8 9 9 8 7 7 10 10 12 14 13 18 22 23 29 29 22 22 27 28 24 22 19 21 21 22 23 23 24 22 26
4 4 3 11 6 5 4 8 6 6 6 7 6 6 7 8 8 9 11 11 12 11 14 16 22 28 26 24 18 24 25 22 21 20 19 18 19 17 19 21 24 24 25 22
3 1 6 6 8 5 3 4 2 3 6 1 7 6 6 6 5 5 8 10 11 14 15 14 21 18 19 20 25 24 19 18 18 16 18 15 15 17 20 21 23 23 23 24
3 2 7 9 6 10 5 3 4 3 6 9 9 8 9 10 11 11 11 12 13 14 15 17 16 20 18 22 20 20 15 17 16 20 16 15 17 18 20 21 21 24 24 21
1 1 1 3 5 8 7 5 7 8 8 8 8 8 10 9 9 11 12 13 14 15 18 14 10 13 21 21 19 17 15 14 18 19 19 16 18 20 20 22 22 22 22 20
1 4 6 7 6 9 9 7 5 6 9 5 1 13 8 8 10 12 11 11 13 15 14 17 13 15 21 18 17 13 13 15 17 21 20 19 20 19 18 20 19 17 19 19
5 8 8 6 7 9 8 6 5 6 9 9 9 8 9 10 11 9 11 13 15 14 14 13 15 16 17 15 15 11 12 15 18 20 20 16 17 18 22 20 20 20 18 19
6 9 6 6 5 7 9 6 5 4 6 9 8 8 10 10 8 12 15 14 13 12 12 11 13 17 16 14 11 8 11 18 20 20 18 16 19 21 21 21 21 21 19 21
6 6 2 5 7 9 7 4 3 5 9 8 9 9 10 11 1 15 14 13 12 11 9 11 11 16 15 12 6 11 17 20 20 18 16 16 16 18 20 20 21 21 22 22
5 5 6 5 5 5 11 6 3 2 5 7 8 9 11 11 6 12 13 14 11 11 7 11 18 15 13 9 8 15 18 18 19 15 14 14 15 18 18 18 18 18 20 20
7 8 7 6 2 7 7 3 3 6 6 5 7 8 9 7 8 9 9 10 7 5 9 14 12 11 10 10 11 14 15 15 15 15 13 13 14 15 19 19 19 18 18 20
6 5 4 0 4 6 2 3 5 7 7 6 7 7 5 8 9 7 7 6 5 7 7 10 11 9 9 12 10 13 12 12 13 11 11 10 11 15 17 17 17 19 22 24
2 4 3 6 5 9 11 13 9 7 7 7 6 6 6 8 7 7 5 5 5 7 9 8 7 11 12 10 11 12 9 10 12 9 9 9 10 12 14 16 19 22 22 20
4 3 5 7 9 11 11 10 9 9 8 7 7 6 8 10 8 8 5 2 7 9 8 7 9 10 9 9 9 8 8 7 10 8 6 8 9 8 15 14 16 19 19 18
3 8 8 10 11 11 9 9 9 9 7 9 7 7 9 10 9 8 4 6 8 7 7 9 10 5 10 8 7 7 7 6 8 8 5 7 7 9 11 12 16 14 14 18
5 9 6 7 16 4 15 11 9 8 6 6 9 8 9 9 9 12 3 3 5 6 9 9 7 8 10 9 9 6 7 6 6 6 6 8 9 7 12 8 7 13 14 17
Wind_Direction
195 220 216 208 338 337 352 231 132 65 117 243 99 143 156 138 133 140 128 124 115 113 105 91 77 61 53 46 37 28 24 17 10 7 2 357 349 342 337 324 325 322 309 316
189 230 62 32 255 251 241 156 117 145 205 265 147 170 159 165 150 139 140 132 129 123 111 91 78 62 48 38 32 24 16 9 10 6 4 358 341 337 331 334 325 314 332 321
227 94 132 204 199 230 221 248 149 215 187 255 194 147 300 169 160 135 120 129 135 127 127 104 78 38 13 15 17 15 5 359 8 360 2 357 349 345 343 334 333 344 329 313
161 124 193 212 215 286 203 214 249 186 253 228 261 258 203 176 164 174 146 146 135 131 146 132 78 54 355 1 81 16 5 1 3 0 354 350 352 346 335 333 334 332 316 326
129 176 216 213 32 288 52 349 273 260 248 288 235 252 62 32 114 160 151 150 128 173 99 64 8 23 10 12 33 67 9 354 357 358 359 350 350 341 333 334 330 324 337 328
145 66 262 87 147 298 63 238 233 244 247 236 -0 313 107 157 196 149 141 131 173 118 71 132 349 55 16 4 359 357 358 349 8 359 355 354 353 341 341 344 339 338 331 338
175 189 131 243 169 170 227 210 234 233 218 143 202 307 65 59 57 118 112 153 74 305 43 24 25 17 10 357 352 346 359 353 12 2 359 360 356 350 353 352 349 344 345 347
207 174 179 161 291 1 44 328 347 328 333 5 179 38 82 72 72 69 122 91 52 43 26 27 17 356 345 358 357 351 0 359 9 7 4 4 359 13 7 6 -0 0 356 351
211 120 121 215 274 292 62 256 30 297 251 257 117 129 98 84 86 50 64 68 45 23 26 14 0 341 353 360 353 357 15 16 3 355 357 2 13 15 6 12 5 4 2 359
7 126 198 141 253 204 291 358 283 229 313 319 348 66 79 47 36 47 47 42 48 356 352 2 348 1 0 355 3 29 9 358 3 358 357 359 5 6 6 8 7 6 5 10
313 257 148 192 218 0 254 208 10 290 292 327 291 81 49 56 47 37 33 36 9 5 352 354 352 359 11 28 5 13 0 3 358 3 356 4 2 4 5 4 3 360 358 6
67 297 283 58 62 1 12 354 336 318 9 324 286 89 59 37 49 20 14 22 357 359 341 353 5 34 20 2 355 15 13 359 3 358 7 14 9 6 3 359 6 3 3 20
24 221 235 205 189 180 34 50 14 279 271 188 305 106 91 56 15 34 7 351 345 352 0 3 32 29 29 347 17 10 14 6 4 1 13 15 8 7 5 4 3 9 19 22
319 302 292 341 26 89 117 50 3 328 290 358 50 111 67 37 11 4 357 354 356 355 355 30 32 15 3 5 9 8 16 13 356 16 18 16 10 7 5 3 14 25 21 20
64 209 218 94 71 77 81 66 47 53 26 10 49 55 38 21 354 354 351 11 7 350 21 27 6 13 353 3 9 20 25 6 7 15 15 16 10 10 5 18 27 22 19 16
186 133 136 129 121 104 95 82 67 56 7 62 228 88 40 15 356 353 20 2 2 3 11 7 2 347 3 17 24 31 15 3 357 13 20 19 17 10 10 25 18 17 18 12
170 156 197 128 154 153 135 54 35 100 47 10 32 27 14 5 357 3 28 8 4 4 352 350 359 2 10 21 27 36 12 5 18 29 26 21 14 11 25 17 19 24 19 15
162 192 208 137 179 221 83 72 67 70 51 41 37 20 16 6 10 45 31 18 13 359 4 9 5 9 16 46 48 23 7 26 19 34 23 21 18 20 24 21 23 19 15 12
172 207 142 172 201 113 153 121 17 339 104 45 7 13 6 350 50 80 38 29 24 12 12 8 9 34 43 47 52 26 34 27 23 38 29 26 25 27 23 19 14 13 12 15
171 268 252 218 155 196 83 97 22 279 154 48 8 19 4 346 341 35 17 27 34 19 35 7 52 46 61 60 41 41 35 27 30 39 39 28 36 32 25 18 16 15 16 17
170 207 215 186 68 93 77 49 310 253 73 58 29 31 17 24 42 38 27 43 30 68 53 70 50 49 63 53 53 44 33 31 38 38 42 35 27 27 23 21 22 18 14 23
184 209 180 264 226 132 99 182 319 93 90 46 59 37 25 52 55 59 61 47 22 73 69 53 54 60 54 62 51 48 40 30 51 46 32 35 31 27 25 29 28 31 25 27
185 16 56 11 71 101 75 88 93 86 82 63 58 59 53 69 75 79 87 108 120 78 67 64 80 80 73 54 44 49 46 31 51 50 33 30 35 27 31 39 40 33 31 27
131 153 113 166 131 113 108 103 97 90 88 82 87 84 89 95 100 109 121 136 84 68 54 65 76 71 66 56 53 50 46 36 36 47 19 32 41 33 37 42 37 38 29 25
80 166 136 105 127 128 135 123 118 110 105 106 89 94 100 105 118 115 87 99 83 84 80 73 77 73 75 51 48 43 38 43 28 36 19 28 44 32 42 43 43 40 37 39
186 131 191 151 154 250 138 136 136 122 113 117 124 113 94 120 128 126 92 81 84 73 78 66 71 39 52 51 62 48 36 55 26 7 36 38 19 30 47 38 54 43 59 48
Height
748 757 755 738 735 735 738 743 751 752 744 749 754 772 774 772 778 788 792 799 806 807 809 811 812 813 812 811 812 812 810 808 804 800 795 792 787 783 780 778 776 775 772 769
750 757 735 736 739 742 742 749 758 757 754 754 760 769 773 776 779 784 790 796 801 805 808 811 811 814 814 813 814 814 812 810 807 802 798 796 792 786 782 778 775 771 769 766
746 741 739 743 746 750 745 749 761 759 756 749 753 776 800 772 780 784 787 791 795 800 805 808 811 813 813 812 814 814 814 812 808 806 801 800 795 789 785 782 776 772 770 765
738 737 747 747 749 747 758 741 749 757 766 780 762 790 800 771 780 782 790 793 795 801 803 804 807 811 812 810 812 813 813 811 808 807 803 801 797 793 790 783 779 775 770 764
748 750 752 751 753 745 760 742 750 752 759 756 753 772 785 798 793 790 790 789 792 798 799 804 806 807 808 808 808 808 810 810 808 805 803 801 797 794 788 784 779 773 767 764
740 732 737 740 745 744 743 752 751 750 752 773 798 769 820 823 803 791 796 792 791 796 803 803 805 806 808 808 808 807 806 805 805 803 802 800 797 794 788 783 777 773 769 763
750 748 738 738 751 743 747 759 776 787 781 779 767 766 784 779 774 778 794 802 797 798 803 804 805 806 812 813 810 807 805 805 804 804 804 802 800 795 791 787 783 778 773 767
764 778 749 740 746 751 753 758 776 801 783 769 752 785 797 774 771 774 782 796 799 805 803 806 812 814 813 811 807 805 805 805 805 806 805 803 801 798 796 793 789 784 778 771
757 764 742 743 741 745 756 764 754 779 760 772 777 781 775 775 782 783 786 797 803 805 809 812 812 812 811 809 809 806 806 810 809 806 804 803 802 799 797 794 791 786 781 773
745 772 747 748 743 742 753 747 775 766 800 804 767 790 812 798 796 794 795 800 806 810 806 807 807 807 808 809 808 811 813 811 808 807 806 805 803 801 799 795 791 787 781 775
742 760 761 751 756 759 757 759 765 773 777 800 798 815 800 805 803 803 799 804 807 810 807 808 806 807 810 815 816 815 816 814 813 813 812 808 807 804 800 796 792 787 782 777
754 759 768 767 756 750 759 769 771 791 791 778 789 822 801 802 802 805 805 808 810 810 809 809 809 816 821 822 820 821 821 821 820 818 814 813 811 808 803 800 795 791 786 781
759 769 784 781 769 762 771 772 775 779 784 790 803 822 800 802 804 805 810 811 812 813 811 812 822 825 826 828 825 825 827 825 823 820 817 816 813 809 806 802 797 793 789 785
764 773 782 790 785 767 787 782 778 781 795 790 799 803 801 805 811 811 812 812 815 816 816 821 827 830 830 829 829 829 830 829 824 820 818 817 814 811 807 804 800 796 793 789
766 785 776 774 773 773 783 788 787 793 794 804 804 807 815 816 818 816 815 818 822 823 825 832 835 832 831 830 832 832 832 830 826 822 820 819 816 813 810 806 803 800 796 792
769 788 780 789 779 783 794 792 794 796 795 795 799 814 811 812 815 818 820 826 828 829 834 837 836 835 833 836 835 836 835 831 829 825 824 823 820 817 813 809 806 803 800 795
778 783 789 801 785 789 806 801 800 799 801 803 814 818 813 818 822 820 827 831 835 840 842 841 838 839 838 839 840 840 837 834 831 828 829 827 824 819 816 813 809 806 802 798
780 786 782 794 796 821 804 793 799 805 808 809 813 817 818 821 820 827 835 841 845 847 846 844 843 842 841 843 843 842 840 837 834 832 832 830 826 823 819 816 812 809 805 801
769 778 788 802 799 807 806 802 804 808 818 817 821 821 822 823 817 838 844 846 849 850 850 847 846 845 846 846 845 842 841 840 838 837 836 833 831 827 824 821 817 813 809 805
776 779 784 785 799 815 801 801 800 803 824 822 823 827 828 825 821 832 847 850 852 853 851 848 849 848 848 848 846 845 844 844 842 841 840 838 833 831 828 825 821 818 813 810
787 781 787 788 793 807 802 803 801 823 838 825 829 832 834 837 842 848 853 853 854 852 851 851 851 849 849 848 848 847 847 848 846 845 843 841 838 834 831 828 825 821 816 812
788 789 789 790 797 821 803 804 816 826 825 827 831 837 837 840 846 853 855 856 854 850 849 848 849 849 850 850 849 850 851 851 849 848 846 844 841 838 835 832 828 825 821 817
796 790 787 805 808 811 809 815 818 821 826 833 836 840 840 846 853 854 856 855 851 849 850 851 849 850 852 851 851 852 854 853 852 851 849 846 844 841 838 835 833 829 826 823
787 781 791 801 811 813 817 820 823 827 832 836 839 842 844 850 853 855 854 852 850 851 851 851 850 852 853 853 853 855 855 855 853 853 851 848 845 843 841 838 836 834 832 828
777 782 794 805 807 813 817 821 828 832 835 839 843 844 845 850 853 855 856 853 853 853 852 851 854 853 853 854 855 856 856 856 855 854 852 850 848 846 843 842 840 838 836 833
776 785 790 788 800 803 814 823 829 833 837 840 843 847 848 851 851 855 858 856 854 854 853 855 856 855 854 854 856 857 857 857 857 855 851 851 850 847 846 844 842 840 838 836